Location: Nitra
(0.0000°N, 18.0833°E)
Time: 12:30:41
(UTC+02:00)

STRAND 1 - Visible Passes

Search period start: 05 June 2023 00:00
Search period end: 15 June 2023 00:00
Orbit: 767 x 779 km, 98.4° (Epoch: 04 June)

Date Brightness Start Highest point End Pass type
(mag) Time Alt. Az. Time Alt. Az. Time Alt. Az.
05 Jun ? 19:50:42 10° NNW 19:55:00 28° WNW 19:59:19 10° SW visible
06 Jun ? 19:15:31 10° N 19:20:37 75° WNW 19:25:45 10° SSW visible
07 Jun ? 06:10:54 10° ESE 06:14:01 16° ENE 06:17:08 10° NE visible
07 Jun ? 20:23:29 10° WNW 20:25:06 11° WNW 20:26:43 10° W visible
08 Jun ? 19:46:16 10° NNW 19:50:44 31° WNW 19:55:14 10° SW visible
09 Jun ? 19:11:14 10° N 19:16:21 84° WNW 19:21:29 10° SSW visible
10 Jun ? 06:07:02 10° ESE 06:09:46 15° ENE 06:12:28 10° NE visible
10 Jun ? 20:18:32 10° NW 20:20:50 13° WNW 20:23:09 10° WSW visible
11 Jun ? 19:41:52 10° NNW 19:46:29 35° WNW 19:51:06 10° SW visible
12 Jun ? 19:06:58 10° NNE 19:12:06 87° ESE 19:17:13 10° S visible
13 Jun ? 06:03:17 10° ESE 06:05:29 13° ENE 06:07:41 10° NE visible
13 Jun ? 20:13:47 10° NW 20:16:34 15° WNW 20:19:22 10° WSW visible
14 Jun ? 19:37:28 10° N 19:42:12 39° WNW 19:46:57 10° SW visible
